Location: Klickitat County Star Party
(45.8642°N, 120.6771°W)
Time: 21:08:41
(UTC-07:00)

SPROUT - Visible Passes

Search period start: 25 May 2019 00:00
Search period end: 04 June 2019 00:00
Orbit: 600 x 613 km, 97.9° (Epoch: 25 May)

Date Brightness Start Highest point End Pass type
(mag) Time Alt. Az. Time Alt. Az. Time Alt. Az.
25 May ? 01:28:50 39° W 01:28:50 39° W 01:32:44 10° NNW visible
26 May ? 00:05:05 26° E 00:06:02 29° ENE 00:09:43 10° N visible
26 May ? 01:41:58 29° W 01:41:58 29° W 01:45:34 10° NW visible
27 May ? 00:18:13 35° E 00:18:59 38° ENE 00:22:56 10° N visible
27 May ? 01:55:06 21° W 01:55:06 21° W 01:58:15 10° NW visible
28 May ? 00:31:21 47° ESE 00:31:58 52° ENE 00:36:06 10° N visible
28 May ? 02:08:13 16° W 02:08:13 16° W 02:10:45 10° NW visible
29 May ? 00:44:29 64° ESE 00:44:57 71° ENE 00:49:12 10° N visible
29 May ? 02:21:21 12° W 02:21:21 12° W 02:22:50 10° WNW visible
29 May ? 23:21:18 10° E 23:22:47 12° ENE 23:24:15 10° NE visible
30 May ? 00:57:36 74° S 00:57:58 84° WSW 01:02:15 10° NNW visible
30 May ? 23:33:52 12° E 23:35:38 15° ENE 23:38:06 10° NNE visible
31 May ? 01:10:44 59° WSW 01:11:00 61° WSW 01:15:14 10° NNW visible
31 May ? 23:46:59 17° E 23:48:32 20° ENE 23:51:37 10° NNE visible
01 Jun ? 01:23:52 43° WSW 01:24:04 44° W 01:28:09 10° NNW visible
02 Jun ? 00:00:07 22° E 00:01:26 26° ENE 00:04:58 10° N visible
02 Jun ? 01:37:00 32° W 01:37:09 32° W 01:41:00 10° NNW visible
03 Jun ? 00:13:15 29° E 00:14:22 34° ENE 00:18:13 10° N visible
03 Jun ? 01:50:08 24° W 01:50:16 24° W 01:53:44 10° NW visible
